Volver al catálogo

QIANFAN-4

ActivoComunicacionesPO
NORAD 60382·PAYLOAD·🇨🇳 China

Lanzado Aug 6, 2024 desde Taiyuan Satellite Launch Center

Loading…

Próximos Pases (próximas 24 horas)

TLE

ActualizadoSource: Space-Track

Época: Sep 14, 2026, 14:08 UTC

1 60382U 24140D   26257.58950633  .00000012  00000-0 -54815-6 0  9994
2 60382  88.9671 270.5230 0014958 110.3221 249.9539 13.51020977104681

Sigue QIANFAN-4 en tiempo real con AllMySat

Download on the App Store